This is the latest recevied weather packets stored in our database for station/object WB8ZGM-13. If no packets are shown the sender has not sent any weather packets the latest 1 day(s).
| Time | Temp. | Humidity | Pressure | Rain* | Wind** | Luminosity | Snow |
|---|---|---|---|---|---|---|---|
| 1778047823 | 21.67° C | 75% | 989.4 hPa | 0 mm | - | - | - |
| 1778046893 | 21.67° C | 74% | 989.7 hPa | 0 mm | - | - | - |
| 1778045963 | 21.67° C | 73% | 990.2 hPa | 0 mm | - | - | - |
| 1778045033 | 21.67° C | 73% | 990.3 hPa | 0 mm | - | - | - |
| 1778044103 | 21.67° C | 73% | 990.3 hPa | 0 mm | - | - | - |
| 1778043173 | 21.67° C | 73% | 990.3 hPa | 0 mm | - | - | - |
| 1778042243 | 21.67° C | 73% | 990.5 hPa | 0 mm | - | - | - |
| 1778041313 | 21.67° C | 73% | 990.3 hPa | 0 mm | - | - | - |
| 1778040383 | 21.67° C | 72% | 990.5 hPa | 0 mm | - | - | - |
| 1778039453 | 21.67° C | 72% | 990.7 hPa | 0 mm | - | - | - |
| 1778038523 | 21.67° C | 72% | 990.7 hPa | 0 mm | - | - | - |
| 1778037623 | 21.67° C | 72% | 990.7 hPa | 0 mm | - | - | - |
| 1778036723 | 21.67° C | 72% | 990.9 hPa | 0 mm | - | - | - |
| 1778035793 | 21.67° C | 72% | 990.5 hPa | 0 mm | - | - | - |
| 1778034893 | 21.67° C | 71% | 990.7 hPa | 0 mm | - | - | - |
| 1778033993 | 21.67° C | 71% | 990.8 hPa | 0 mm | - | - | - |
| 1778033063 | 21.67° C | 70% | 990.7 hPa | 0 mm | - | - | - |
| 1778032133 | 21.67° C | 69% | 990.6 hPa | 0 mm | - | - | - |
| 1778031232 | 21.67° C | 69% | 990.9 hPa | 0 mm | - | - | - |
| 1778021182 | 22.22° C | 62% | 991.4 hPa | 0 mm | - | - | - |
| 1778018392 | 22.78° C | 57% | 992.6 hPa | 0 mm | - | - | - |
| 1778016532 | 23.33° C | 53% | 991.8 hPa | 0 mm | - | - | - |
| 1778015632 | 23.89° C | 54% | 991.4 hPa | 0 mm | - | - | - |
* Rain latest hour (hover to see other rain measurements)
** Current wind speed in m/s (hover to see current wind gust speed)